QPF
0.00 0.00 0.00 0.00 0.00 0.00 0.00 0.00 0.00 0.00 0.00 0.00 0.00 0.00 0.00 0.00 0.00 0.00 0.00 0.00 0.00 0.01 0.02 0.03 0.05 0.12 0.12 0.10 0.10 0.09 0.09 0.10 0.09 0.07 0.06 0.06 0.08 0.08 0.07 0.06 0.05 0.05 0.04 0.04
0.00 0.00 0.00 0.00 0.00 0.00 0.00 0.00 0.00 0.00 0.00 0.00 0.00 0.00 0.00 0.00 0.00 0.00 0.00 0.00 0.00 0.01 0.01 0.02 0.04 0.10 0.12 0.08 0.08 0.09 0.09 0.07 0.06 0.07 0.09 0.11 0.14 0.12 0.08 0.06 0.05 0.05 0.04 0.04
0.00 0.00 0.00 0.00 0.00 0.00 0.00 0.00 0.00 0.00 0.00 0.00 0.00 0.00 0.00 0.00 0.00 0.00 0.00 0.00 0.01 0.01 0.01 0.01 0.02 0.04 0.05 0.05 0.06 0.07 0.08 0.08 0.08 0.09 0.10 0.09 0.10 0.08 0.06 0.05 0.05 0.05 0.05 0.05
0.00 0.00 0.00 0.00 0.00 0.00 0.00 0.00 0.00 0.00 0.00 0.00 0.00 0.00 0.00 0.00 0.00 0.00 0.00 0.00 0.01 0.02 0.01 0.02 0.03 0.03 0.05 0.06 0.06 0.07 0.08 0.09 0.11 0.12 0.11 0.09 0.07 0.07 0.07 0.06 0.06 0.05 0.04 0.04
0.00 0.00 0.00 0.00 0.00 0.00 0.00 0.00 0.00 0.00 0.00 0.00 0.00 0.00 0.00 0.00 0.00 0.00 0.00 0.00 0.01 0.02 0.01 0.03 0.03 0.03 0.06 0.08 0.07 0.07 0.08 0.10 0.13 0.15 0.13 0.10 0.07 0.08 0.09 0.08 0.08 0.08 0.06 0.05
0.00 0.00 0.00 0.00 0.00 0.00 0.00 0.00 0.00 0.00 0.00 0.00 0.00 0.00 0.00 0.00 0.00 0.00 0.00 0.00 0.00 0.01 0.02 0.04 0.03 0.03 0.06 0.10 0.08 0.07 0.08 0.09 0.09 0.10 0.08 0.06 0.05 0.06 0.07 0.07 0.06 0.06 0.06 0.05
0.00 0.00 0.00 0.00 0.00 0.00 0.00 0.00 0.00 0.00 0.00 0.00 0.00 0.00 0.00 0.00 0.00 0.00 0.00 0.00 0.01 0.02 0.02 0.03 0.03 0.03 0.04 0.06 0.06 0.04 0.05 0.06 0.05 0.06 0.06 0.05 0.04 0.05 0.07 0.06 0.04 0.05 0.05 0.04
0.00 0.00 0.00 0.00 0.00 0.00 0.00 0.00 0.00 0.00 0.00 0.00 0.00 0.00 0.00 0.00 0.00 0.00 0.00 0.00 0.01 0.02 0.03 0.02 0.02 0.03 0.03 0.03 0.03 0.03 0.03 0.04 0.04 0.05 0.05 0.04 0.05 0.04 0.05 0.05 0.04 0.05 0.06 0.05
0.00 0.00 0.00 0.00 0.00 0.00 0.00 0.00 0.00 0.00 0.00 0.00 0.00 0.00 0.00 0.00 0.00 0.00 0.00 0.00 0.00 0.01 0.02 0.02 0.02 0.02 0.03 0.03 0.03 0.03 0.03 0.03 0.04 0.04 0.05 0.06 0.06 0.06 0.05 0.05 0.05 0.04 0.06 0.04
0.00 0.00 0.00 0.00 0.00 0.00 0.00 0.00 0.00 0.00 0.00 0.00 0.00 0.00 0.00 0.00 0.00 0.00 0.00 0.00 0.00 0.00 0.01 0.01 0.01 0.01 0.03 0.03 0.04 0.04 0.03 0.04 0.04 0.04 0.04 0.05 0.06 0.07 0.07 0.05 0.05 0.05 0.05 0.04
0.00 0.00 0.00 0.00 0.00 0.00 0.00 0.00 0.00 0.00 0.00 0.00 0.00 0.00 0.00 0.00 0.00 0.00 0.00 0.00 0.00 0.00 0.01 0.01 0.01 0.01 0.02 0.02 0.04 0.04 0.03 0.03 0.03 0.04 0.06 0.07 0.07 0.06 0.07 0.05 0.05 0.06 0.06 0.05
0.00 0.00 0.00 0.00 0.00 0.00 0.00 0.00 0.00 0.00 0.00 0.00 0.00 0.00 0.00 0.00 0.00 0.00 0.00 0.00 0.00 0.00 0.00 0.00 0.00 0.01 0.02 0.03 0.04 0.04 0.03 0.03 0.03 0.03 0.05 0.07 0.07 0.07 0.07 0.07 0.06 0.07 0.08 0.08
0.00 0.00 0.00 0.00 0.00 0.00 0.00 0.00 0.00 0.00 0.00 0.00 0.00 0.00 0.00 0.00 0.00 0.00 0.00 0.00 0.00 0.00 0.00 0.00 0.00 0.01 0.02 0.03 0.03 0.04 0.05 0.03 0.03 0.03 0.04 0.06 0.08 0.08 0.08 0.09 0.08 0.08 0.09 0.10
0.00 0.00 0.00 0.00 0.00 0.00 0.00 0.00 0.00 0.00 0.00 0.00 0.00 0.00 0.00 0.00 0.00 0.00 0.00 0.00 0.00 0.00 0.00 0.00 0.00 0.00 0.01 0.02 0.02 0.03 0.03 0.03 0.02 0.02 0.03 0.05 0.07 0.09 0.11 0.12 0.12 0.10 0.08 0.08
0.00 0.00 0.00 0.00 0.00 0.00 0.00 0.00 0.00 0.00 0.00 0.00 0.00 0.00 0.00 0.00 0.00 0.00 0.00 0.00 0.00 0.00 0.00 0.00 0.00 0.00 0.01 0.01 0.01 0.01 0.02 0.02 0.02 0.02 0.02 0.04 0.07 0.09 0.10 0.13 0.13 0.11 0.11 0.11
0.00 0.00 0.00 0.00 0.00 0.00 0.00 0.00 0.00 0.00 0.00 0.00 0.00 0.00 0.00 0.00 0.00 0.00 0.00 0.00 0.00 0.00 0.00 0.00 0.00 0.00 0.01 0.01 0.01 0.01 0.02 0.03 0.03 0.02 0.03 0.04 0.05 0.05 0.10 0.16 0.21 0.21 0.21 0.21
0.00 0.00 0.00 0.00 0.00 0.00 0.00 0.00 0.00 0.00 0.00 0.00 0.00 0.00 0.00 0.00 0.00 0.00 0.00 0.00 0.00 0.00 0.00 0.00 0.00 0.01 0.00 0.00 0.01 0.01 0.01 0.01 0.02 0.03 0.02 0.03 0.04 0.06 0.10 0.13 0.16 0.21 0.24 0.26
0.00 0.00 0.00 0.00 0.00 0.00 0.00 0.00 0.00 0.00 0.00 0.00 0.00 0.00 0.00 0.00 0.00 0.00 0.00 0.01 0.01 0.01 0.00 0.00 0.00 0.01 0.00 0.01 0.01 0.01 0.01 0.02 0.02 0.03 0.02 0.02 0.05 0.07 0.09 0.09 0.11 0.15 0.19 0.21
0.00 0.00 0.00 0.00 0.00 0.00 0.00 0.00 0.00 0.00 0.00 0.00 0.00 0.00 0.00 0.00 0.00 0.01 0.01 0.02 0.01 0.01 0.02 0.02 0.02 0.01 0.01 0.01 0.01 0.01 0.02 0.02 0.03 0.03 0.04 0.05 0.06 0.06 0.05 0.07 0.09 0.10 0.11 0.11
0.00 0.00 0.00 0.00 0.00 0.00 0.00 0.00 0.00 0.00 0.01 0.00 0.00 0.00 0.00 0.00 0.01 0.01 0.01 0.02 0.02 0.02 0.03 0.03 0.03 0.03 0.02 0.03 0.02 0.01 0.01 0.02 0.03 0.04 0.04 0.05 0.06 0.06 0.05 0.07 0.09 0.08 0.07 0.07
0.00 0.00 0.00 0.00 0.00 0.00 0.00 0.00 0.00 0.01 0.01 0.00 0.00 0.00 0.01 0.01 0.02 0.02 0.01 0.01 0.01 0.02 0.01 0.02 0.02 0.02 0.02 0.03 0.02 0.02 0.03 0.03 0.04 0.04 0.04 0.04 0.05 0.05 0.05 0.06 0.06 0.07 0.06 0.06
0.00 0.01 0.01 0.01 0.01 0.00 0.00 0.00 0.01 0.01 0.00 0.00 0.00 0.01 0.01 0.01 0.01 0.01 0.01 0.01 0.02 0.02 0.02 0.02 0.02 0.02 0.03 0.03 0.03 0.04 0.03 0.03 0.03 0.05 0.05 0.05 0.05 0.05 0.05 0.05 0.05 0.06 0.06 0.07
0.01 0.01 0.01 0.01 0.01 0.00 0.00 0.00 0.01 0.00 0.01 0.01 0.01 0.01 0.01 0.01 0.01 0.01 0.01 0.02 0.02 0.02 0.02 0.02 0.02 0.03 0.04 0.04 0.05 0.05 0.04 0.04 0.04 0.05 0.06 0.06 0.05 0.05 0.06 0.07 0.06 0.06 0.07 0.07
0.01 0.00 0.01 0.01 0.01 0.00 0.00 0.01 0.01 0.01 0.01 0.01 0.01 0.01 0.01 0.02 0.01 0.02 0.02 0.02 0.03 0.03 0.03 0.03 0.03 0.03 0.05 0.05 0.06 0.06 0.06 0.06 0.07 0.07 0.08 0.09 0.07 0.07 0.07 0.07 0.07 0.07 0.08 0.08
0.01 0.01 0.02 0.03 0.01 0.00 0.00 0.01 0.01 0.01 0.01 0.01 0.01 0.01 0.02 0.02 0.02 0.02 0.02 0.02 0.02 0.03 0.04 0.05 0.04 0.03 0.04 0.04 0.05 0.05 0.05 0.06 0.06 0.06 0.06 0.07 0.07 0.06 0.06 0.06 0.06 0.07 0.07 0.07
0.01 0.01 0.02 0.02 0.01 0.01 0.01 0.01 0.01 0.01 0.01 0.01 0.01 0.01 0.01 0.02 0.04 0.04 0.04 0.03 0.03 0.03 0.04 0.05 0.05 0.04 0.04 0.03 0.04 0.06 0.10 0.10 0.07 0.05 0.05 0.04 0.04 0.04 0.04 0.05 0.05 0.05 0.04 0.03
MSLP
1010.26 1010.55 1010.71 1010.77 1010.76 1010.72 1010.65 1010.58 1010.47 1010.31 1010.05 1009.68 1009.20 1008.64 1008.03 1007.45 1006.98 1006.66 1006.53 1006.61 1006.88 1007.30 1007.82 1008.37 1008.93 1009.46 1009.96 1010.42 1010.86 1011.29 1011.72 1012.14 1012.54 1012.91 1013.24 1013.52 1013.77 1013.99 1014.22 1014.48 1014.79 1015.15 1015.57 1016.03
1010.44 1010.62 1010.69 1010.68 1010.64 1010.61 1010.60 1010.61 1010.60 1010.54 1010.36 1010.04 1009.58 1008.99 1008.35 1007.71 1007.17 1006.80 1006.63 1006.68 1006.93 1007.33 1007.83 1008.36 1008.87 1009.35 1009.78 1010.18 1010.57 1010.97 1011.40 1011.84 1012.29 1012.72 1013.12 1013.46 1013.74 1013.97 1014.18 1014.40 1014.65 1014.96 1015.33 1015.76
1010.41 1010.50 1010.49 1010.44 1010.40 1010.41 1010.49 1010.61 1010.72 1010.76 1010.66 1010.40 1009.95 1009.34 1008.64 1007.94 1007.33 1006.89 1006.68 1006.69 1006.92 1007.31 1007.79 1008.30 1008.78 1009.22 1009.60 1009.95 1010.30 1010.67 1011.09 1011.55 1012.05 1012.54 1013.00 1013.40 1013.72 1013.98 1014.18 1014.36 1014.56 1014.81 1015.12 1015.49
1010.15 1010.18 1010.12 1010.07 1010.07 1010.16 1010.35 1010.60 1010.85 1011.00 1010.99 1010.77 1010.33 1009.69 1008.93 1008.15 1007.46 1006.94 1006.66 1006.63 1006.83 1007.20 1007.68 1008.18 1008.65 1009.06 1009.41 1009.73 1010.04 1010.39 1010.80 1011.27 1011.79 1012.33 1012.84 1013.30 1013.67 1013.95 1014.16 1014.32 1014.48 1014.68 1014.93 1015.25
1009.70 1009.69 1009.64 1009.62 1009.70 1009.90 1010.22 1010.62 1011.00 1011.26 1011.34 1011.15 1010.71 1010.03 1009.20 1008.34 1007.55 1006.95 1006.60 1006.51 1006.68 1007.03 1007.50 1008.00 1008.48 1008.88 1009.22 1009.52 1009.80 1010.12 1010.51 1010.98 1011.50 1012.06 1012.60 1013.10 1013.51 1013.82 1014.05 1014.21 1014.36 1014.52 1014.73 1015.01
1009.12 1009.10 1009.08 1009.13 1009.31 1009.64 1010.10 1010.64 1011.14 1011.51 1011.65 1011.50 1011.05 1010.33 1009.44 1008.50 1007.62 1006.94 1006.51 1006.37 1006.49 1006.83 1007.29 1007.80 1008.28 1008.70 1009.03 1009.32 1009.58 1009.87 1010.22 1010.64 1011.14 1011.68 1012.23 1012.74 1013.18 1013.52 1013.78 1013.97 1014.13 1014.30 1014.50 1014.76
1008.46 1008.47 1008.51 1008.65 1008.93 1009.39 1009.97 1010.62 1011.22 1011.66 1011.85 1011.73 1011.28 1010.54 1009.61 1008.61 1007.67 1006.92 1006.43 1006.23 1006.32 1006.63 1007.10 1007.61 1008.10 1008.53 1008.87 1009.14 1009.37 1009.61 1009.90 1010.27 1010.70 1011.19 1011.70 1012.20 1012.64 1013.02 1013.32 1013.56 1013.76 1013.96 1014.19 1014.47
1007.82 1007.87 1007.97 1008.19 1008.57 1009.11 1009.78 1010.50 1011.16 1011.64 1011.87 1011.76 1011.32 1010.59 1009.65 1008.63 1007.68 1006.89 1006.37 1006.14 1006.20 1006.50 1006.95 1007.46 1007.96 1008.39 1008.73 1008.99 1009.18 1009.37 1009.58 1009.85 1010.19 1010.59 1011.03 1011.48 1011.91 1012.31 1012.65 1012.96 1013.23 1013.50 1013.79 1014.11
1007.24 1007.33 1007.49 1007.78 1008.21 1008.80 1009.49 1010.23 1010.89 1011.39 1011.62 1011.53 1011.12 1010.43 1009.53 1008.56 1007.63 1006.87 1006.35 1006.12 1006.16 1006.44 1006.88 1007.38 1007.88 1008.30 1008.63 1008.86 1009.02 1009.13 1009.25 1009.41 1009.63 1009.92 1010.27 1010.65 1011.05 1011.45 1011.84 1012.21 1012.57 1012.93 1013.30 1013.68
1006.75 1006.88 1007.08 1007.39 1007.84 1008.42 1009.09 1009.78 1010.40 1010.87 1011.09 1011.02 1010.67 1010.05 1009.25 1008.38 1007.54 1006.85 1006.38 1006.17 1006.21 1006.47 1006.89 1007.37 1007.85 1008.26 1008.57 1008.77 1008.88 1008.93 1008.96 1009.01 1009.11 1009.27 1009.50 1009.80 1010.15 1010.55 1010.97 1011.40 1011.85 1012.31 1012.77 1013.24
1006.35 1006.51 1006.73 1007.05 1007.47 1007.99 1008.58 1009.18 1009.71 1010.11 1010.31 1010.27 1009.99 1009.48 1008.83 1008.11 1007.42 1006.85 1006.46 1006.29 1006.35 1006.59 1006.97 1007.42 1007.86 1008.24 1008.53 1008.71 1008.79 1008.79 1008.74 1008.70 1008.68 1008.73 1008.85 1009.06 1009.35 1009.73 1010.16 1010.65 1011.18 1011.72 1012.27 1012.82
1006.02 1006.21 1006.44 1006.74 1007.11 1007.54 1008.01 1008.48 1008.91 1009.22 1009.39 1009.38 1009.18 1008.82 1008.33 1007.80 1007.29 1006.87 1006.58 1006.48 1006.54 1006.76 1007.10 1007.49 1007.89 1008.24 1008.50 1008.67 1008.73 1008.70 1008.62 1008.51 1008.42 1008.38 1008.41 1008.54 1008.77 1009.11 1009.54 1010.06 1010.64 1011.26 1011.89 1012.50
1005.74 1005.95 1006.19 1006.46 1006.76 1007.10 1007.45 1007.79 1008.09 1008.32 1008.45 1008.47 1008.36 1008.14 1007.85 1007.51 1007.19 1006.92 1006.76 1006.71 1006.78 1006.97 1007.25 1007.58 1007.92 1008.23 1008.47 1008.63 1008.70 1008.69 1008.61 1008.48 1008.36 1008.26 1008.23 1008.30 1008.47 1008.77 1009.19 1009.72 1010.33 1010.99 1011.66 1012.33
1005.47 1005.71 1005.96 1006.21 1006.47 1006.72 1006.95 1007.17 1007.36 1007.51 1007.61 1007.65 1007.63 1007.55 1007.43 1007.29 1007.15 1007.03 1006.97 1006.97 1007.04 1007.19 1007.41 1007.67 1007.94 1008.21 1008.44 1008.61 1008.71 1008.74 1008.70 1008.60 1008.49 1008.38 1008.33 1008.35 1008.49 1008.75 1009.14 1009.65 1010.26 1010.93 1011.63 1012.32
1005.21 1005.47 1005.74 1006.00 1006.22 1006.41 1006.56 1006.68 1006.78 1006.87 1006.94 1007.01 1007.06 1007.11 1007.14 1007.16 1007.18 1007.19 1007.21 1007.25 1007.31 1007.42 1007.56 1007.74 1007.95 1008.18 1008.39 1008.59 1008.74 1008.83 1008.86 1008.83 1008.77 1008.69 1008.65 1008.66 1008.77 1009.00 1009.36 1009.84 1010.43 1011.09 1011.78 1012.48
1004.94 1005.23 1005.53 1005.79 1006.01 1006.17 1006.27 1006.33 1006.37 1006.41 1006.47 1006.56 1006.68 1006.82 1006.98 1007.14 1007.27 1007.39 1007.48 1007.54 1007.59 1007.64 1007.71 1007.82 1007.96 1008.14 1008.35 1008.57 1008.77 1008.94 1009.05 1009.12 1009.13 1009.12 1009.11 1009.14 1009.24 1009.45 1009.78 1010.23 1010.78 1011.41 1012.09 1012.78
1004.68 1004.99 1005.31 1005.60 1005.83 1005.98 1006.07 1006.10 1006.11 1006.13 1006.18 1006.28 1006.45 1006.67 1006.92 1007.18 1007.42 1007.61 1007.75 1007.83 1007.86 1007.87 1007.88 1007.91 1007.99 1008.13 1008.32 1008.55 1008.79 1009.03 1009.23 1009.39 1009.50 1009.57 1009.62 1009.69 1009.81 1010.01 1010.32 1010.74 1011.26 1011.86 1012.51 1013.18
1004.46 1004.77 1005.10 1005.40 1005.65 1005.81 1005.90 1005.93 1005.94 1005.95 1006.01 1006.13 1006.33 1006.61 1006.93 1007.26 1007.57 1007.83 1008.02 1008.12 1008.14 1008.12 1008.07 1008.05 1008.07 1008.15 1008.31 1008.53 1008.80 1009.08 1009.36 1009.60 1009.80 1009.95 1010.09 1010.22 1010.38 1010.60 1010.91 1011.31 1011.81 1012.39 1013.02 1013.68
1004.33 1004.61 1004.92 1005.23 1005.48 1005.66 1005.77 1005.81 1005.82 1005.84 1005.91 1006.05 1006.28 1006.59 1006.96 1007.35 1007.73 1008.04 1008.27 1008.40 1008.43 1008.39 1008.31 1008.23 1008.19 1008.22 1008.34 1008.53 1008.80 1009.10 1009.42 1009.73 1010.01 1010.26 1010.47 1010.68 1010.91 1011.18 1011.52 1011.93 1012.43 1013.00 1013.62 1014.27
1004.34 1004.55 1004.83 1005.11 1005.36 1005.55 1005.67 1005.72 1005.75 1005.78 1005.86 1006.02 1006.27 1006.61 1007.01 1007.45 1007.87 1008.24 1008.51 1008.67 1008.73 1008.69 1008.59 1008.48 1008.39 1008.37 1008.42 1008.58 1008.81 1009.11 1009.45 1009.81 1010.16 1010.49 1010.80 1011.10 1011.41 1011.76 1012.15 1012.61 1013.13 1013.71 1014.34 1015.00
1004.51 1004.65 1004.86 1005.11 1005.33 1005.52 1005.64 1005.71 1005.75 1005.79 1005.88 1006.05 1006.31 1006.66 1007.09 1007.55 1008.01 1008.42 1008.74 1008.95 1009.04 1009.02 1008.92 1008.79 1008.66 1008.59 1008.59 1008.69 1008.88 1009.17 1009.51 1009.90 1010.31 1010.72 1011.13 1011.54 1011.95 1012.39 1012.87 1013.39 1013.96 1014.57 1015.21 1015.89
1004.87 1004.93 1005.07 1005.27 1005.46 1005.63 1005.75 1005.82 1005.86 1005.92 1006.01 1006.17 1006.43 1006.78 1007.21 1007.69 1008.17 1008.61 1008.97 1009.22 1009.35 1009.36 1009.29 1009.15 1009.01 1008.90 1008.86 1008.91 1009.07 1009.33 1009.68 1010.09 1010.55 1011.04 1011.55 1012.07 1012.60 1013.15 1013.73 1014.32 1014.95 1015.60 1016.28 1016.96
1005.38 1005.38 1005.47 1005.62 1005.78 1005.93 1006.04 1006.10 1006.15 1006.19 1006.28 1006.42 1006.66 1006.99 1007.40 1007.87 1008.36 1008.81 1009.20 1009.50 1009.67 1009.72 1009.68 1009.57 1009.44 1009.32 1009.26 1009.29 1009.43 1009.68 1010.03 1010.48 1010.99 1011.56 1012.16 1012.79 1013.44 1014.09 1014.76 1015.44 1016.12 1016.82 1017.51 1018.20
1005.99 1005.96 1006.02 1006.14 1006.28 1006.41 1006.51 1006.57 1006.61 1006.64 1006.70 1006.81 1007.01 1007.29 1007.66 1008.10 1008.57 1009.03 1009.43 1009.76 1009.98 1010.09 1010.10 1010.04 1009.94 1009.86 1009.82 1009.86 1010.00 1010.26 1010.64 1011.12 1011.69 1012.33 1013.02 1013.74 1014.48 1015.22 1015.97 1016.71 1017.44 1018.16 1018.86 1019.54
1006.62 1006.59 1006.65 1006.77 1006.91 1007.04 1007.13 1007.19 1007.21 1007.21 1007.23 1007.30 1007.43 1007.66 1007.97 1008.36 1008.79 1009.23 1009.64 1010.00 1010.27 1010.45 1010.53 1010.55 1010.53 1010.51 1010.53 1010.61 1010.80 1011.09 1011.51 1012.03 1012.65 1013.35 1014.10 1014.88 1015.69 1016.49 1017.28 1018.05 1018.80 1019.52 1020.21 1020.86
1007.14 1007.16 1007.26 1007.41 1007.57 1007.71 1007.80 1007.85 1007.84 1007.82 1007.79 1007.80 1007.88 1008.03 1008.27 1008.60 1008.98 1009.41 1009.83 1010.21 1010.54 1010.80 1010.98 1011.11 1011.19 1011.27 1011.38 1011.54 1011.79 1012.14 1012.61 1013.17 1013.82 1014.55 1015.33 1016.14 1016.97 1017.78 1018.58 1019.35 1020.08 1020.77 1021.42 1022.02
Thickness
5793 5787 5785 5792 5797 5797 5793 5788 5786 5794 5806 5803 5802 5805 5811 5812 5809 5804 5799 5794 5788 5785 5783 5778 5772 5766 5761 5755 5750 5746 5743 5742 5740 5739 5737 5736 5735 5736 5737 5737 5736 5735 5735 5735
5779 5780 5796 5801 5797 5790 5786 5781 5785 5794 5802 5798 5799 5803 5812 5811 5806 5804 5799 5793 5789 5784 5779 5774 5769 5764 5759 5755 5750 5746 5743 5742 5741 5740 5739 5737 5735 5735 5736 5736 5735 5734 5734 5734
5779 5792 5800 5790 5784 5779 5782 5781 5784 5785 5794 5800 5795 5797 5804 5808 5807 5803 5800 5797 5792 5785 5778 5772 5767 5763 5759 5754 5751 5749 5745 5742 5741 5740 5738 5736 5733 5733 5733 5733 5733 5734 5734 5734
5781 5794 5788 5782 5781 5781 5776 5791 5787 5783 5781 5787 5787 5779 5799 5803 5800 5799 5797 5795 5791 5786 5780 5773 5767 5763 5760 5757 5754 5751 5746 5743 5741 5739 5738 5736 5733 5731 5734 5734 5734 5734 5734 5734
5778 5786 5780 5776 5783 5785 5786 5793 5787 5784 5780 5778 5786 5778 5795 5801 5794 5796 5796 5794 5791 5787 5782 5775 5770 5766 5762 5759 5756 5752 5747 5743 5741 5739 5738 5735 5734 5734 5735 5735 5734 5734 5734 5734
5785 5791 5788 5788 5793 5792 5790 5783 5780 5781 5781 5764 5779 5773 5781 5798 5794 5795 5795 5792 5789 5786 5782 5776 5772 5767 5762 5760 5758 5753 5748 5744 5742 5739 5738 5735 5734 5734 5733 5733 5733 5733 5734 5734
5766 5776 5787 5792 5782 5783 5781 5768 5760 5758 5761 5767 5781 5773 5783 5798 5800 5797 5794 5791 5788 5785 5781 5776 5770 5766 5762 5760 5758 5755 5750 5745 5744 5741 5739 5737 5735 5734 5732 5733 5733 5734 5735 5734
5756 5761 5779 5786 5783 5777 5776 5776 5761 5754 5760 5773 5773 5772 5791 5801 5801 5800 5798 5793 5788 5785 5782 5777 5772 5768 5764 5761 5758 5755 5751 5748 5745 5743 5741 5739 5737 5736 5736 5736 5736 5734 5735 5736
5766 5764 5785 5789 5792 5786 5773 5774 5790 5775 5770 5765 5775 5781 5791 5797 5795 5795 5793 5789 5786 5784 5781 5777 5774 5769 5764 5760 5758 5756 5752 5749 5747 5746 5743 5741 5739 5738 5737 5736 5735 5736 5735 5735
5775 5762 5775 5782 5784 5784 5788 5784 5775 5766 5750 5750 5765 5771 5780 5786 5788 5789 5788 5787 5785 5783 5780 5778 5775 5770 5766 5762 5759 5757 5753 5750 5748 5747 5745 5744 5741 5739 5737 5736 5735 5734 5734 5734
5775 5761 5765 5770 5768 5769 5769 5770 5773 5774 5773 5759 5757 5771 5796 5792 5791 5789 5788 5788 5786 5783 5780 5777 5774 5770 5766 5763 5759 5755 5752 5749 5747 5746 5745 5743 5741 5739 5737 5735 5733 5733 5732 5731
5770 5765 5760 5768 5783 5789 5781 5778 5773 5761 5758 5766 5768 5775 5798 5798 5795 5792 5790 5787 5786 5784 5782 5778 5773 5769 5765 5762 5759 5755 5752 5749 5748 5746 5744 5742 5740 5738 5736 5734 5732 5731 5729 5729
5764 5756 5743 5749 5759 5770 5772 5777 5780 5777 5771 5767 5764 5772 5793 5793 5790 5789 5787 5784 5782 5780 5778 5776 5771 5767 5763 5760 5758 5755 5752 5750 5748 5746 5743 5740 5738 5736 5734 5732 5730 5729 5728 5727
5766 5758 5756 5755 5765 5773 5766 5771 5776 5773 5767 5766 5770 5777 5782 5784 5783 5784 5782 5780 5779 5776 5774 5771 5767 5764 5761 5758 5756 5753 5751 5749 5746 5744 5741 5738 5736 5734 5732 5729 5727 5726 5725 5723
5759 5753 5759 5770 5779 5778 5774 5773 5772 5771 5776 5774 5777 5779 5782 5783 5782 5780 5779 5777 5774 5771 5769 5767 5764 5761 5759 5756 5753 5751 5748 5746 5744 5741 5739 5736 5734 5732 5729 5726 5724 5722 5720 5718
5751 5750 5754 5755 5766 5769 5766 5771 5772 5772 5776 5777 5778 5776 5784 5782 5781 5776 5773 5771 5768 5767 5766 5764 5762 5759 5755 5753 5751 5749 5745 5743 5740 5737 5735 5733 5730 5727 5724 5721 5719 5716 5713 5711
5744 5741 5741 5746 5757 5754 5747 5764 5768 5770 5775 5776 5771 5774 5776 5771 5768 5766 5766 5766 5764 5763 5762 5760 5759 5756 5753 5751 5750 5746 5743 5740 5737 5733 5731 5728 5725 5721 5718 5715 5712 5708 5705 5702
5731 5733 5739 5743 5737 5723 5755 5770 5771 5767 5768 5771 5769 5769 5768 5764 5761 5761 5761 5760 5758 5757 5755 5754 5754 5752 5751 5749 5746 5743 5740 5736 5732 5729 5726 5723 5719 5715 5711 5707 5703 5699 5696 5693
5729 5726 5731 5734 5728 5736 5743 5754 5759 5755 5752 5762 5760 5758 5758 5758 5755 5751 5753 5754 5751 5750 5750 5749 5749 5748 5745 5743 5741 5737 5733 5730 5727 5723 5719 5716 5712 5708 5703 5699 5694 5690 5687 5683
5718 5720 5722 5721 5718 5719 5741 5750 5756 5751 5738 5753 5753 5750 5750 5749 5745 5742 5742 5744 5743 5743 5743 5742 5742 5741 5737 5735 5734 5730 5726 5723 5719 5715 5711 5708 5704 5699 5695 5690 5686 5682 5677 5673
5703 5704 5709 5713 5714 5728 5735 5742 5742 5725 5731 5743 5745 5743 5742 5741 5740 5736 5735 5733 5732 5732 5732 5733 5732 5731 5728 5727 5725 5720 5717 5713 5710 5707 5702 5698 5694 5690 5685 5681 5676 5672 5667 5662
5700 5702 5700 5707 5705 5710 5724 5729 5727 5725 5732 5735 5735 5735 5732 5729 5728 5727 5724 5722 5722 5721 5722 5722 5720 5719 5718 5717 5714 5710 5705 5703 5700 5696 5691 5687 5682 5680 5675 5670 5665 5661 5657 5652
5693 5698 5706 5704 5703 5705 5713 5715 5716 5721 5721 5723 5724 5725 5722 5719 5718 5716 5714 5713 5712 5711 5711 5712 5710 5707 5706 5705 5703 5698 5694 5692 5688 5683 5679 5674 5670 5667 5663 5659 5655 5650 5647 5643
5678 5685 5689 5689 5691 5696 5700 5704 5707 5710 5710 5712 5714 5714 5713 5710 5708 5706 5705 5703 5701 5700 5700 5700 5699 5695 5692 5691 5689 5687 5683 5680 5676 5671 5666 5662 5657 5653 5649 5647 5644 5640 5636 5633
5670 5675 5678 5677 5681 5685 5688 5691 5694 5696 5699 5701 5703 5704 5703 5701 5699 5697 5695 5693 5691 5690 5689 5690 5686 5682 5679 5677 5675 5673 5671 5669 5664 5659 5654 5650 5645 5640 5635 5631 5626 5625 5620 5620
5665 5666 5669 5671 5675 5678 5676 5680 5684 5684 5686 5688 5689 5690 5691 5691 5689 5687 5685 5683 5681 5680 5679 5676 5673 5670 5667 5665 5662 5659 5658 5657 5653 5648 5643 5638 5633 5627 5623 5618 5610 5603 5603 5600